Time,TemperatureF,DewpointF,PressureIn,WindDirection,WindDirectionDegrees,WindSpeedMPH,WindSpeedGustMPH,Humidity,HourlyPrecipIn,Conditions,Clouds,dailyrainin,SoftwareType,DateUTC
2013-05-01 00:02:00,63.0,53.0,29.93,North,0,0.0,0.0,69,0.00,,,0.00,,2013-05-01 05:02:00,
2013-05-01 00:11:00,63.0,53.0,29.93,North,0,0.0,0.0,69,0.00,,,0.00,,2013-05-01 05:11:00,
2013-05-01 00:21:00,63.0,53.0,29.93,North,0,0.0,0.0,70,0.00,,,0.00,,2013-05-01 05:21:00,
2013-05-01 00:32:00,63.0,54.0,29.93,North,0,0.0,0.0,72,0.00,,,0.00,,2013-05-01 05:32:00,
2013-05-01 00:42:00,62.0,54.0,29.93,North,0,0.0,0.0,74,0.00,,,0.00,,2013-05-01 05:42:00,
2013-05-01 00:52:00,62.0,54.0,29.93,North,0,0.0,0.0,74,0.00,,,0.00,,2013-05-01 05:52:00,
2013-05-01 01:02:00,61.0,54.0,29.93,North,0,0.0,0.0,77,0.00,,,0.00,,2013-05-01 06:02:00,
2013-05-01 01:11:00,61.0,54.0,29.93,North,0,0.0,0.0,77,0.00,,,0.00,,2013-05-01 06:11:00,
2013-05-01 01:22:00,60.0,53.0,29.93,North,0,0.0,0.0,78,0.00,,,0.00,,2013-05-01 06:22:00,
2013-05-01 01:32:00,60.0,53.0,29.93,North,0,0.0,0.0,79,0.00,,,0.00,,2013-05-01 06:32:00,
2013-05-01 01:42:00,60.0,53.0,29.93,North,0,0.0,0.0,79,0.00,,,0.00,,2013-05-01 06:42:00,
2013-05-01 01:51:00,59.0,54.0,29.93,North,0,0.0,0.0,83,0.00,,,0.00,,2013-05-01 06:51:00,
2013-05-01 02:01:00,59.0,54.0,29.93,North,0,0.0,0.0,83,0.00,,,0.00,,2013-05-01 07:01:00,
2013-05-01 02:11:00,59.0,54.0,29.93,North,0,0.0,0.0,83,0.00,,,0.00,,2013-05-01 07:11:00,
2013-05-01 02:21:00,58.0,53.0,29.93,North,0,0.0,0.0,84,0.00,,,0.00,,2013-05-01 07:21:00,
2013-05-01 02:32:00,58.0,53.0,29.93,North,0,0.0,0.0,84,0.00,,,0.00,,2013-05-01 07:32:00,
2013-05-01 02:41:00,58.0,53.0,29.93,North,0,0.0,0.0,84,0.00,,,0.00,,2013-05-01 07:41:00,
2013-05-01 02:52:00,58.0,53.0,29.92,North,0,0.0,0.0,84,0.00,,,0.00,,2013-05-01 07:52:00,
2013-05-01 03:01:00,58.0,53.0,29.92,North,0,0.0,0.0,84,0.00,,,0.00,,2013-05-01 08:01:00,
2013-05-01 03:11:00,58.0,53.0,29.92,North,0,0.0,0.0,84,0.00,,,0.00,,2013-05-01 08:11:00,
2013-05-01 03:21:00,58.0,53.0,29.92,North,0,0.0,0.0,84,0.00,,,0.00,,2013-05-01 08:21:00,
2013-05-01 03:31:00,58.0,53.0,29.93,North,0,0.0,0.0,84,0.00,,,0.00,,2013-05-01 08:31:00,
2013-05-01 03:42:00,58.0,53.0,29.93,North,0,0.0,0.0,84,0.00,,,0.00,,2013-05-01 08:42:00,
2013-05-01 03:53:00,58.0,53.0,29.93,North,0,0.0,0.0,84,0.00,,,0.00,,2013-05-01 08:53:00,
2013-05-01 04:01:00,58.0,53.0,29.93,North,0,0.0,0.0,84,0.00,,,0.00,,2013-05-01 09:01:00,
2013-05-01 04:11:00,58.0,53.0,29.93,North,0,0.0,0.0,84,0.00,,,0.00,,2013-05-01 09:11:00,
2013-05-01 04:21:00,58.0,53.0,29.93,North,0,0.0,0.0,84,0.00,,,0.00,,2013-05-01 09:21:00,
2013-05-01 04:33:00,58.0,53.0,29.93,North,0,0.0,0.0,84,0.00,,,0.00,,2013-05-01 09:33:00,
2013-05-01 04:42:00,58.0,53.0,29.93,North,0,0.0,0.0,84,0.00,,,0.00,,2013-05-01 09:42:00,
2013-05-01 04:52:00,58.0,53.0,29.93,North,0,0.0,0.0,84,0.00,,,0.00,,2013-05-01 09:52:00,
2013-05-01 05:02:00,58.0,53.0,29.93,North,0,0.0,0.0,84,0.00,,,0.00,,2013-05-01 10:02:00,
2013-05-01 05:12:00,58.0,53.0,29.93,North,0,0.0,0.0,84,0.00,,,0.00,,2013-05-01 10:12:00,
2013-05-01 05:22:00,58.0,53.0,29.93,North,0,0.0,0.0,84,0.00,,,0.00,,2013-05-01 10:22:00,
2013-05-01 05:33:00,58.0,53.0,29.93,North,0,0.0,0.0,84,0.00,,,0.00,,2013-05-01 10:33:00,
2013-05-01 05:42:00,58.0,53.0,29.93,North,0,0.0,0.0,84,0.00,,,0.00,,2013-05-01 10:42:00,
2013-05-01 05:53:00,58.0,53.0,29.95,North,0,0.0,0.0,84,0.00,,,0.00,,2013-05-01 10:53:00,
2013-05-01 06:02:00,58.0,53.0,29.95,North,0,0.0,0.0,84,0.00,,,0.00,,2013-05-01 11:02:00,
2013-05-01 06:11:00,58.0,53.0,29.95,North,0,0.0,0.0,84,0.00,,,0.00,,2013-05-01 11:11:00,
2013-05-01 06:22:00,58.0,53.0,29.96,North,0,0.0,0.0,84,0.00,,,0.00,,2013-05-01 11:22:00,
2013-05-01 06:32:00,58.0,53.0,29.96,North,0,0.0,0.0,84,0.00,,,0.00,,2013-05-01 11:32:00,
2013-05-01 06:42:00,58.0,53.0,29.97,North,0,0.0,0.0,84,0.00,,,0.00,,2013-05-01 11:42:00,
2013-05-01 06:52:00,58.0,53.0,29.97,North,0,0.0,0.0,84,0.00,,,0.00,,2013-05-01 11:52:00,
2013-05-01 07:01:00,58.0,53.0,29.97,North,0,0.0,0.0,84,0.00,,,0.00,,2013-05-01 12:01:00,
2013-05-01 07:11:00,58.0,53.0,29.97,North,0,0.0,0.0,84,0.00,,,0.00,,2013-05-01 12:11:00,
2013-05-01 07:21:00,58.0,53.0,29.97,North,0,0.0,0.0,84,0.00,,,0.00,,2013-05-01 12:21:00,
2013-05-01 07:31:00,62.0,56.0,29.99,North,0,0.0,0.0,80,0.00,,,0.00,,2013-05-01 12:31:00,
2013-05-01 07:41:00,62.0,56.0,29.99,North,0,0.0,0.0,80,0.00,,,0.00,,2013-05-01 12:41:00,
2013-05-01 07:51:00,63.0,56.0,29.99,North,0,0.0,0.0,78,0.00,,,0.00,,2013-05-01 12:51:00,
2013-05-01 08:01:00,64.0,56.0,30.01,East,99,0.0,3.0,75,0.00,,,0.00,,2013-05-01 13:01:00,
2013-05-01 08:11:00,64.0,56.0,30.01,East,99,0.0,3.0,75,0.00,,,0.00,,2013-05-01 13:11:00,
2013-05-01 08:21:00,65.0,56.0,30.01,ESE,111,0.0,8.0,73,0.00,,,0.00,,2013-05-01 13:21:00,
2013-05-01 08:32:00,66.0,56.0,30.01,ESE,119,0.0,6.0,71,0.00,,,0.00,,2013-05-01 13:32:00,
2013-05-01 08:42:00,66.0,56.0,30.01,ESE,119,0.0,6.0,71,0.00,,,0.00,,2013-05-01 13:42:00,
2013-05-01 08:52:00,68.0,58.0,30.01,East,100,0.0,6.0,71,0.00,,,0.00,,2013-05-01 13:52:00,
2013-05-01 09:02:00,68.0,57.0,30.02,East,97,1.0,8.0,69,0.00,,,0.00,,2013-05-01 14:02:00,
2013-05-01 09:11:00,68.0,57.0,30.02,East,97,1.0,8.0,69,0.00,,,0.00,,2013-05-01 14:11:00,
2013-05-01 09:21:00,68.0,57.0,30.02,East,100,0.0,10.0,69,0.00,,,0.00,,2013-05-01 14:21:00,
2013-05-01 09:32:00,68.0,57.0,30.02,SSE,154,0.0,7.0,69,0.00,,,0.00,,2013-05-01 14:32:00,
2013-05-01 09:42:00,68.0,57.0,30.02,SSE,154,0.0,7.0,69,0.00,,,0.00,,2013-05-01 14:42:00,
2013-05-01 09:52:00,70.0,59.0,30.02,East,90,0.0,6.0,68,0.00,,,0.00,,2013-05-01 14:52:00,
2013-05-01 10:01:00,72.0,60.0,30.02,ESE,108,1.0,7.0,65,0.00,,,0.00,,2013-05-01 15:01:00,
2013-05-01 10:11:00,72.0,60.0,30.02,ESE,108,1.0,7.0,65,0.00,,,0.00,,2013-05-01 15:11:00,
2013-05-01 10:21:00,74.0,60.0,30.02,ESE,115,2.0,11.0,61,0.00,,,0.00,,2013-05-01 15:21:00,
2013-05-01 10:33:00,74.0,59.0,30.02,SE,133,3.0,11.0,60,0.00,,,0.00,,2013-05-01 15:33:00,
2013-05-01 10:43:00,74.0,59.0,30.02,SE,133,3.0,11.0,60,0.00,,,0.00,,2013-05-01 15:43:00,
2013-05-01 10:53:00,75.0,60.0,30.03,SE,126,1.0,7.0,59,0.00,,,0.00,,2013-05-01 15:53:00,
2013-05-01 11:03:00,75.0,59.0,30.03,ESE,109,2.0,8.0,58,0.00,,,0.00,,2013-05-01 16:03:00,
2013-05-01 11:12:00,75.0,59.0,30.03,ESE,109,2.0,8.0,58,0.00,,,0.00,,2013-05-01 16:12:00,
2013-05-01 11:22:00,76.0,61.0,30.03,ESE,116,1.0,10.0,59,0.00,,,0.00,,2013-05-01 16:22:00,
2013-05-01 11:31:00,76.0,60.0,30.03,ESE,120,2.0,10.0,58,0.00,,,0.00,,2013-05-01 16:31:00,
2013-05-01 11:42:00,76.0,60.0,30.03,ESE,120,2.0,10.0,58,0.00,,,0.00,,2013-05-01 16:42:00,
2013-05-01 11:53:00,77.0,62.0,30.03,SE,125,2.0,8.0,60,0.00,,,0.00,,2013-05-01 16:53:00,
2013-05-01 12:02:00,78.0,61.0,30.02,East,101,2.0,8.0,55,0.00,,,0.00,,2013-05-01 17:02:00,
2013-05-01 12:12:00,78.0,61.0,30.02,East,101,2.0,8.0,55,0.00,,,0.00,,2013-05-01 17:12:00,
2013-05-01 12:21:00,78.0,62.0,30.02,East,100,3.0,11.0,57,0.00,,,0.00,,2013-05-01 17:21:00,
2013-05-01 12:32:00,78.0,61.0,30.02,East,100,2.0,9.0,56,0.00,,,0.00,,2013-05-01 17:32:00,
2013-05-01 12:42:00,79.0,61.0,30.01,East,97,2.0,13.0,54,0.00,,,0.00,,2013-05-01 17:42:00,
2013-05-01 12:52:00,79.0,61.0,30.01,East,97,2.0,13.0,54,0.00,,,0.00,,2013-05-01 17:52:00,
2013-05-01 13:01:00,79.0,62.0,30.01,East,94,2.0,8.0,57,0.00,,,0.00,,2013-05-01 18:01:00,
2013-05-01 13:11:00,79.0,62.0,30.01,East,94,2.0,8.0,57,0.00,,,0.00,,2013-05-01 18:11:00,
2013-05-01 13:22:00,80.0,61.0,30.01,ESE,103,0.0,5.0,52,0.00,,,0.00,,2013-05-01 18:22:00,
2013-05-01 13:32:00,80.0,61.0,30.01,ESE,106,0.0,7.0,52,0.01,,,0.01,,2013-05-01 18:32:00,
2013-05-01 13:41:00,80.0,61.0,30.01,ESE,106,0.0,7.0,52,0.01,,,0.01,,2013-05-01 18:41:00,
2013-05-01 13:52:00,80.0,60.0,30.01,SSE,154,1.0,11.0,51,0.01,,,0.01,,2013-05-01 18:52:00,
2013-05-01 14:02:00,79.0,59.0,30.01,ESE,119,1.0,10.0,50,0.01,,,0.01,,2013-05-01 19:02:00,
2013-05-01 14:11:00,79.0,59.0,30.01,ESE,119,1.0,10.0,50,0.01,,,0.01,,2013-05-01 19:11:00,
2013-05-01 14:22:00,81.0,59.0,30.01,SSE,158,0.0,8.0,48,0.01,,,0.01,,2013-05-01 19:22:00,
2013-05-01 14:32:00,80.0,59.0,30.01,East,100,1.0,7.0,48,0.00,,,0.01,,2013-05-01 19:32:00,
2013-05-01 14:42:00,80.0,59.0,30.01,East,100,1.0,7.0,48,0.00,,,0.01,,2013-05-01 19:42:00,
2013-05-01 14:52:00,81.0,58.0,30.00,ESE,106,1.0,8.0,45,0.00,,,0.01,,2013-05-01 19:52:00,
2013-05-01 15:01:00,80.0,59.0,30.00,East,90,2.0,10.0,48,0.00,,,0.01,,2013-05-01 20:01:00,
2013-05-01 15:11:00,80.0,59.0,30.00,East,90,2.0,10.0,48,0.00,,,0.01,,2013-05-01 20:11:00,
2013-05-01 15:21:00,81.0,58.0,29.99,East,99,1.0,7.0,45,0.00,,,0.01,,2013-05-01 20:21:00,
2013-05-01 15:32:00,81.0,57.0,29.99,ESE,103,1.0,12.0,44,0.00,,,0.01,,2013-05-01 20:32:00,
2013-05-01 15:42:00,81.0,57.0,29.99,ESE,103,1.0,12.0,44,0.00,,,0.01,,2013-05-01 20:42:00,
2013-05-01 15:52:00,81.0,55.0,29.99,ESE,111,2.0,11.0,41,0.00,,,0.01,,2013-05-01 20:52:00,
2013-05-01 16:01:00,80.0,57.0,29.98,East,100,1.0,8.0,45,0.00,,,0.01,,2013-05-01 21:01:00,
2013-05-01 16:11:00,80.0,57.0,29.98,East,100,1.0,8.0,45,0.00,,,0.01,,2013-05-01 21:11:00,
2013-05-01 16:22:00,80.0,57.0,29.98,ESE,114,1.0,7.0,45,0.00,,,0.01,,2013-05-01 21:22:00,
2013-05-01 16:32:00,80.0,57.0,29.98,East,90,0.0,3.0,46,0.00,,,0.01,,2013-05-01 21:32:00,
2013-05-01 16:43:00,81.0,58.0,29.98,East,93,0.0,7.0,46,0.00,,,0.01,,2013-05-01 21:43:00,
2013-05-01 16:53:00,81.0,58.0,29.98,East,93,0.0,7.0,46,0.00,,,0.01,,2013-05-01 21:53:00,
2013-05-01 17:03:00,80.0,58.0,29.98,East,101,1.0,8.0,47,0.00,,,0.01,,2013-05-01 22:03:00,
2013-05-01 17:12:00,80.0,58.0,29.98,East,101,1.0,8.0,47,0.00,,,0.01,,2013-05-01 22:12:00,
2013-05-01 17:23:00,80.0,57.0,29.98,East,94,3.0,12.0,45,0.00,,,0.01,,2013-05-01 22:23:00,
2013-05-01 17:33:00,81.0,58.0,29.98,East,93,3.0,12.0,45,0.00,,,0.01,,2013-05-01 22:33:00,
2013-05-01 17:42:00,81.0,58.0,29.98,East,93,3.0,12.0,45,0.00,,,0.01,,2013-05-01 22:42:00,
2013-05-01 17:53:00,81.0,58.0,29.97,East,98,2.0,9.0,45,0.00,,,0.01,,2013-05-01 22:53:00,
2013-05-01 18:02:00,80.0,56.0,29.97,East,100,2.0,8.0,44,0.00,,,0.01,,2013-05-01 23:02:00,
2013-05-01 18:12:00,80.0,56.0,29.97,East,100,2.0,8.0,44,0.00,,,0.01,,2013-05-01 23:12:00,
2013-05-01 18:21:00,79.0,56.0,29.97,East,96,2.0,9.0,45,0.00,,,0.01,,2013-05-01 23:21:00,
2013-05-01 18:32:00,79.0,56.0,29.97,East,95,1.0,7.0,45,0.00,,,0.01,,2013-05-01 23:32:00,
2013-05-01 18:42:00,79.0,56.0,29.97,East,95,1.0,7.0,45,0.00,,,0.01,,2013-05-01 23:42:00,
2013-05-01 18:52:00,79.0,58.0,29.97,East,82,0.0,3.0,48,0.00,,,0.01,,2013-05-01 23:52:00,
2013-05-01 19:01:00,79.0,57.0,29.97,East,79,0.0,4.0,47,0.00,,,0.01,,2013-05-02 00:01:00,
2013-05-01 19:11:00,79.0,57.0,29.97,East,79,0.0,4.0,47,0.00,,,0.01,,2013-05-02 00:11:00,
2013-05-01 19:21:00,78.0,57.0,29.98,East,95,0.0,7.0,48,0.00,,,0.01,,2013-05-02 00:21:00,
2013-05-01 19:32:00,78.0,57.0,30.00,East,92,0.0,4.0,48,0.00,,,0.01,,2013-05-02 00:32:00,
2013-05-01 19:41:00,78.0,57.0,30.00,East,92,0.0,4.0,48,0.00,,,0.01,,2013-05-02 00:41:00,
2013-05-01 19:52:00,78.0,57.0,30.00,East,92,0.0,4.0,48,0.00,,,0.01,,2013-05-02 00:52:00,
2013-05-01 20:01:00,78.0,57.0,30.00,East,92,0.0,4.0,48,0.00,,,0.01,,2013-05-02 01:01:00,
2013-05-01 20:11:00,78.0,57.0,30.00,East,92,0.0,4.0,48,0.00,,,0.01,,2013-05-02 01:11:00,
2013-05-01 20:21:00,78.0,57.0,30.00,East,92,0.0,4.0,48,0.00,,,0.01,,2013-05-02 01:21:00,
2013-05-01 20:32:00,78.0,57.0,30.00,East,92,0.0,4.0,48,0.00,,,0.01,,2013-05-02 01:32:00,
2013-05-01 20:42:00,78.0,57.0,30.00,East,92,0.0,4.0,48,0.00,,,0.01,,2013-05-02 01:42:00,
2013-05-01 20:52:00,78.0,57.0,30.00,East,92,0.0,4.0,48,0.00,,,0.01,,2013-05-02 01:52:00,
2013-05-01 21:02:00,78.0,57.0,30.01,East,92,0.0,4.0,48,0.00,,,0.01,,2013-05-02 02:02:00,
2013-05-01 21:11:00,78.0,57.0,30.01,East,92,0.0,4.0,48,0.00,,,0.01,,2013-05-02 02:11:00,
2013-05-01 21:21:00,78.0,57.0,30.01,East,92,0.0,4.0,48,0.00,,,0.01,,2013-05-02 02:21:00,
2013-05-01 21:32:00,78.0,57.0,30.01,East,92,0.0,4.0,48,0.00,,,0.01,,2013-05-02 02:32:00,
2013-05-01 21:42:00,78.0,57.0,30.01,East,92,0.0,4.0,48,0.00,,,0.01,,2013-05-02 02:42:00,
2013-05-01 21:51:00,78.0,57.0,30.01,East,92,0.0,4.0,48,0.00,,,0.01,,2013-05-02 02:51:00,
2013-05-01 22:01:00,78.0,57.0,30.02,East,92,0.0,4.0,48,0.00,,,0.01,,2013-05-02 03:01:00,
2013-05-01 22:11:00,78.0,57.0,30.02,East,92,0.0,4.0,48,0.00,,,0.01,,2013-05-02 03:11:00,
2013-05-01 22:22:00,78.0,57.0,30.02,East,92,0.0,4.0,48,0.00,,,0.01,,2013-05-02 03:22:00,
2013-05-01 22:32:00,78.0,57.0,30.02,East,92,0.0,4.0,48,0.00,,,0.01,,2013-05-02 03:32:00,
2013-05-01 22:42:00,78.0,57.0,30.02,East,92,0.0,4.0,48,0.00,,,0.01,,2013-05-02 03:42:00,
2013-05-01 22:53:00,78.0,57.0,30.01,East,92,0.0,4.0,48,0.00,,,0.01,,2013-05-02 03:53:00,
2013-05-01 23:03:00,78.0,57.0,30.01,East,92,0.0,4.0,48,0.00,,,0.01,,2013-05-02 04:03:00,
2013-05-01 23:12:00,78.0,57.0,30.01,East,92,0.0,4.0,48,0.00,,,0.01,,2013-05-02 04:12:00,
2013-05-01 23:23:00,78.0,57.0,30.01,East,92,0.0,4.0,48,0.00,,,0.01,,2013-05-02 04:23:00,
2013-05-01 23:33:00,78.0,57.0,30.01,East,92,0.0,4.0,48,0.00,,,0.01,,2013-05-02 04:33:00,
2013-05-01 23:42:00,78.0,57.0,30.01,East,92,0.0,4.0,48,0.00,,,0.01,,2013-05-02 04:42:00,
2013-05-01 23:52:00,78.0,57.0,30.01,East,92,0.0,4.0,48,0.00,,,0.01,,2013-05-02 04:52:00,